Погода в Аняне

Южная Корея     37°23′13″N   126°55′28″E
темп.,
°C
ветер,
м/с
пор.,
м/с
влажн.,
%
обл.,
%
осадки,
мм/ч
давл.,
гПа
погр.,
м
4 июля, пн
пн400:00+28ююз116284 0.0 100729
03:00+26ююз116727 0.0 100725
06:00+26вюв117297 0.0 100646
09:00+29в016092 0.0 1006609
12:00+31ссв115383 0.0 10051218
15:00+33зюз1147100 0.1 10041655
18:00+30зсз4559100 0.1 1004720
21:00+28зсз127191 0.6 1005204
5 июля, вт
вт500:00+27юз117683 0.3 100531
03:00+26с007978 0.3 100541
06:00+26в018399 0.4 100552
09:00+29з007336 2.3 1005373
12:00+34ююз115123 0.3 10041421
15:00+31з4357100 0.6 1003835
18:00+31з225958 0.2 10031001
21:00+26юз2286100 4.3 1005116
6 июля, ср
ср600:00+25зюз1186100 1.4 100653
03:00+25юв118888 2.2 100629
06:00+25вюв1192100 0.0 100794
09:00+26в2488100 0.1 1007312
12:00+25в2491100 0.6 1007278
15:00+30юв356897 0.8 10061009
18:00+29вюв367693 1.5 1005629
21:00+26вюв258696 3.6 1006189
7 июля, чт
чт700:00+25вюв258973 0.0 1006177
03:00+25в229294 0.0 100670
06:00+24вюв2392100 0.1 1006117
09:00+28юв3773100 0.1 1006673
12:00+32ю5956100 0.1 10051671
15:00+26сз1289100 4.4 1004162
18:00+26ююз1889100 1.8 1003647
21:00+25юз31193100 5.9 1004730
8 июля, пт
пт800:00+25ююз2897100 1.9 1003586
03:00+25ююз2897100 5.1 1003586
06:00+25ююз2797100 4.2 1002532
09:00+25юз2697100 6.2 1003468
12:00+26зюз249190 1.4 1003434
15:00+28з458064 4.6 1001813
18:00+28з337219 0.3 1001773
21:00+25зюз12850 0.3 1003105